Location: Dyersburg
(36.0438°N, 89.3789°W)
Time: 13:30:04
(UTC+00:00)

Envisat - Visible Passes

Search period start: 23 January 2020 00:00
Search period end: 02 February 2020 00:00
Orbit: 764 x 766 km, 98.1° (Epoch: 23 January)

Date Brightness Start Highest point End Pass type
(mag) Time Alt. Az. Time Alt. Az. Time Alt. Az.
23 Jan 4.1 00:19:18 10° S 00:24:10 48° W 00:29:04 10° NNW visible
23 Jan 3.3 12:30:43 10° NNE 12:35:48 74° ESE 12:40:52 10° S visible
23 Jan 3.0 23:42:21 10° SSE 23:47:23 72° ENE 23:52:28 10° N visible
24 Jan 6.4 01:25:45 10° WSW 01:26:51 11° W 01:27:59 10° WNW visible
24 Jan 5.1 11:54:27 10° NE 11:58:56 31° E 12:03:22 10° SSE visible
25 Jan 5.3 00:45:33 10° SSW 00:49:46 26° W 00:54:01 10° NW visible
25 Jan 6.2 11:19:36 10° ENE 11:21:52 13° E 11:24:07 10° ESE visible
26 Jan 3.6 00:07:51 10° S 00:12:51 62° W 00:17:54 10° NNW visible
26 Jan 3.8 12:19:29 10° NNE 12:24:30 57° E 12:29:28 10° S visible
27 Jan 6.1 01:12:47 10° SW 01:15:28 14° W 01:18:09 10° WNW visible
27 Jan 5.5 11:43:29 10° NE 11:47:34 24° E 11:51:37 10° SSE visible
28 Jan 4.8 00:33:51 10° SSW 00:38:25 34° W 00:43:01 10° NNW visible
28 Jan 3.2 23:56:29 10° S 00:01:33 81° WSW 00:06:40 10° NNW visible
29 Jan 4.4 12:08:20 10° NNE 12:13:10 43° E 12:18:00 10° S visible
30 Jan 5.8 01:00:34 10° SW 01:04:03 19° W 01:07:34 10° NW visible
30 Jan 5.9 11:32:41 10° NE 11:36:12 19° E 11:39:42 10° SE visible
31 Jan 4.3 00:22:16 10° S 00:27:04 43° W 00:31:55 10° NNW visible
31 Jan 3.0 23:45:13 10° SSE 23:50:16 79° ENE 23:55:22 10° N visible
01 Feb 4.9 11:57:15 10° NNE 12:01:51 34° E 12:06:25 10° SSE visible
